[[{"header":{"parameterUnit":"m.s-1","parameterCategory":1,"la1":30.2991,"la2":30.254,"lo1":-89.0895,"lo2":-89.0444,"dy":0.0017,"dx":0.0017,"nx":28,"ny":28,"refTime":"2023-08-16T03:00:00:Z","depth":0,"parameterNumber":2,"parameterNumberName":"U-component_of_WINDS"},"data":[0,0,0,0,0,0,0,0,0,0,0,0,0,0,0,0,0,0,0,0,0,0,0,0,0,0,0,0,0,0,0,0,0,0,0,0,0,0,0,0,0,0,0,0,0,0,0,0,0,0,0,0,0,0,0,0,0,0,-2.0628,-2.0629,0,-2.0673,-2.0674,-2.0674,-2.0586,-2.0583,-2.058,-2.0577,-2.0626,-2.063,-2.0634,0,0,0,0,0,0,0,0,0,0,0,0,0,-2.0467,-2.047,-2.0628,-2.0629,-2.0629,-2.0673,-2.0674,-2.0674,-2.0586,-2.0583,-2.0579,-2.0576,-2.0625,-2.0629,-2.0634,0,0,0,0,0,0,0,0,0,0,0,0,0,-2.0527,-2.0472,-2.0628,-2.0591,-2.0588,-2.0673,-2.0674,-2.0675,-2.0587,-2.0583,-2.0578,-2.0574,-2.0623,-2.0629,-2.0635,-2.076,0,0,-2.0653,-2.0656,0,0,0,0,0,0,0,0,-2.0524,-2.0533,-2.0596,-2.0593,-2.059,-2.0619,-2.0635,-2.0703,-2.0588,-2.0587,-2.0577,-2.0572,-2.0627,-2.0633,-2.0651,-2.0762,-2.0764,-2.0654,-2.0657,-2.066,-2.0662,0,0,0,0,0,0,0,-2.052,-2.0531,-2.0646,-2.0597,-2.0593,-2.0572,-2.0576,-2.0647,-2.0632,-2.0587,-2.0581,-2.0587,-2.0625,-2.0645,-2.0651,-2.0765,-2.0654,-2.0659,-2.0663,-2.0665,-2.098,-2.0984,0,0,0,0,0,0,-2.052,-2.0528,-2.0645,-2.0647,-2.0545,-2.0578,-2.0582,-2.0614,-2.063,-2.0629,-2.0591,-2.0583,-2.0637,-2.0644,-2.0653,-2.08,-2.066,-2.0666,-2.0669,-2.0975,-2.0981,-2.0986,0,0,0,0,0,0,-2.0517,-2.0531,-2.0643,-2.0586,-2.0598,-2.0586,-2.0622,-2.0618,-2.0638,-2.0633,-2.063,-2.0614,-2.0634,-2.0644,-2.0733,-2.0801,-2.0668,-2.0674,-2.097,-2.0977,-2.0983,-2.1097,0,0,0,0,0,0,-2.0513,-2.0531,-2.0578,-2.0588,-2.0602,-2.0723,-2.0627,-2.0622,-2.0648,-2.0638,-2.0655,-2.0653,-2.0631,-2.0725,-2.0739,-2.0807,-2.0678,-2.0963,-2.0973,-2.0981,-2.1087,-2.1107,-2.1124,0,0,0,0,0,-2.0507,-2.0609,-2.0581,-2.0595,-2.066,-2.0727,-2.0735,-2.0707,-2.0654,-2.0701,-2.0698,-2.0653,-2.0791,-2.0735,-2.075,-2.0821,-2.0959,-2.097,-2.0981,-2.1079,-2.1103,-2.1123,0,0,0,0,0,0,-2.0609,-2.0609,-2.0579,-2.0686,-2.0707,-2.0712,-2.0771,-2.0734,-2.0771,-2.0761,-2.0725,-2.0729,-2.0826,-2.0831,-2.0769,-2.0942,-2.0866,-2.088,-2.0935,-2.0958,-2.0976,-2.0974,-2.0683,0,0,0,0,0,-2.0643,-2.0696,-2.0694,-2.0789,-2.0801,-2.0784,-2.0812,-2.0789,-2.081,-2.0818,-2.0822,-2.0844,-2.0892,-2.0925,-2.0969,-2.1086,-2.1089,-2.1142,-2.1161,-2.1176,-2.1189,-2.1252,-2.1276,-2.1021,-2.1021,-2.1021,0,0,-2.0716,-2.0722,-2.0759,-2.081,-2.0823,-2.088,-2.0793,-2.0856,-2.0898,-2.0828,-2.0913,-2.0916,-2.0938,-2.1042,-2.1088,-2.105,-2.126,-2.1189,-2.1201,-2.1207,-2.1266,-2.129,-2.1311,-2.1028,-2.1027,-2.1026,0,0,-2.0877,-2.0887,-2.0967,-2.0982,-2.1003,-2.0991,-2.1011,-2.1021,-2.102,-2.1104,-2.1053,-2.1102,-2.1186,-2.1204,-2.1224,-2.1391,-2.135,-2.1406,-2.1503,-2.1565,-2.1585,-2.1603,-2.1663,-2.1685,-2.1419,-2.1419,-2.1419,0,-2.0965,-2.1048,-2.1014,-2.1081,-2.1105,-2.1043,-2.1124,-2.114,-2.1175,-2.1194,-2.115,-2.1253,-2.1264,-2.1372,-2.1412,-2.143,-2.1452,-2.1405,-2.1585,-2.1602,-2.1618,-2.1676,-2.1698,-2.1426,-2.1425,-2.1424,-2.1424,0,-2.1155,-2.1213,-2.1276,-2.131,-2.1341,-2.1415,-2.1393,-2.1428,-2.1401,-2.1394,-2.148,-2.149,-2.1535,-2.1558,-2.1534,-2.1663,-2.1638,-2.159,-2.1514,-2.165,-2.1703,-2.1725,-2.1436,-2.1433,-2.1431,-2.1429,0,0,-2.1385,-2.1397,-2.1421,-2.1436,-2.1454,-2.1498,-2.1569,-2.1612,-2.1644,-2.1669,-2.1729,-2.18,-2.1755,-2.1778,-2.1754,-2.1808,-2.1941,-2.1753,-2.1753,-2.1789,-2.2085,-2.2122,-2.2148,-2.1913,-2.1917,-2.192,-2.2083,0,-2.1546,-2.1667,-2.1638,-2.1759,-2.1812,-2.1753,-2.1815,-2.1833,-2.1827,-2.1872,-2.1865,-2.1917,-2.1854,-2.1867,-2.1918,-2.1914,-2.2,-2.1901,-2.1969,-2.1972,-2.1968,-2.2176,-2.2216,-2.237,-2.2104,-2.2107,-2.211,0,-2.1751,-2.1783,-2.1909,-2.1918,-2.1939,-2.1995,-2.2032,-2.2075,-2.2094,-2.2086,-2.2112,-2.2077,-2.2147,-2.2068,-2.2165,-2.2099,-2.2124,-2.2126,-2.2131,-2.2139,-2.2051,-2.2191,-2.2418,-2.2442,-2.2142,-2.214,-2.2137,0,-2.1907,-2.1982,-2.2067,-2.2082,-2.2093,-2.2134,-2.2141,-2.2155,-2.2183,-2.2215,-2.2233,-2.2273,-2.2296,-2.2328,-2.2305,-2.2249,-2.2406,-2.2325,-2.2403,-2.2404,-2.2441,-2.2439,-2.2678,-2.2454,-2.2454,-2.2453,-2.2453,0,-2.2092,-2.2172,-2.2138,-2.2191,-2.2278,-2.2243,-2.2331,-2.2331,-2.2344,-2.2396,-2.2346,-2.2396,-2.2361,-2.2409,-2.2391,-2.2474,-2.2485,-2.2481,-2.2476,-2.2487,-2.2488,-2.2505,-2.2494,-2.2459,-2.2458,-2.2457,-2.2456,0,-2.2283,-2.2263,-2.2352,-2.2355,-2.2358,-2.2422,-2.2425,-2.2474,-2.2464,-2.253,-2.2544,-2.2528,-2.2581,-2.256,-2.2617,-2.2604,-2.2712,-2.2692,-2.2706,-2.2702,-2.2781,-2.2775,-2.3041,-2.3075,-2.2828,-2.283,-2.2832,0,-2.2403,-2.2463,-2.2472,-2.2502,-2.2513,-2.2563,-2.259,-2.2558,-2.2589,-2.2614,-2.266,-2.2708,-2.2745,-2.2832,-2.2826,-2.2869,-2.2851,-2.2941,-2.2857,-2.2866,-2.2854,-2.2852,-2.2858,-2.2959,-2.2961,-2.2964,-2.2966,0,-2.2619,-2.2606,-2.2647,-2.2685,-2.2719,-2.2748,-2.2772,-2.28,-2.2768,-2.2806,-2.2858,-2.2887,-2.2943,-2.2992,-2.303,-2.3037,-2.2997,-2.2991,-2.3012,-2.3025,-2.3032,-2.3031,-2.2754,-2.2986,-2.2984,-2.2983,-2.2982,-2.2981,-2.2779,-2.283,-2.2844,-2.2891,-2.2906,-2.2929,-2.2975,-2.297,-2.3014,-2.3057,-2.3034,-2.3096,-2.3112,-2.3159,-2.3171,-2.3219,-2.3184,-2.3214,-2.3222,-2.323,-2.3241,-2.3022,-2.3226,-2.3225,-2.3225,-2.3224,-2.3224,0,-2.2994,-2.2999,-2.3043,-2.3078,-2.3116,-2.3072,-2.3097,-2.3131,-2.3186,-2.3204,-2.3241,-2.3302,-2.3348,-2.3345,-2.3388,-2.3428,-2.341,-2.344,-2.3438,-2.3441,-2.327,-2.3248,-2.3453,-2.3453,-2.3453,-2.3453,-2.3453,-2.3453,-2.311,-2.3193,-2.3182,-2.3272,-2.3277,-2.3336,-2.3354,-2.3375,-2.339,-2.346,-2.3498,-2.3495,-2.3505,-2.3548,-2.3589,-2.3586,-2.3606,-2.3643,-2.3635,-2.3475,-2.3453,-2.3431,-2.3411,-2.3647,-2.3647,-2.3802,-2.3803,-2.3804]},{"header":{"parameterUnit":"m.s-1","parameterCategory":1,"la1":30.2991,"la2":30.254,"lo1":-89.0895,"lo2":-89.0444,"dy":0.0017,"dx":0.0017,"nx":28,"ny":28,"refTime":"2023-08-16T03:00:00:Z","depth":0,"parameterNumber":3,"parameterNumberName":"V-component_of_WINDS"},"data":[0,0,0,0,0,0,0,0,0,0,0,0,0,0,0,0,0,0,0,0,0,0,0,0,0,0,0,0,0,0,0,0,0,0,0,0,0,0,0,0,0,0,0,0,0,0,0,0,0,0,0,0,0,0,0,0,0,0,-5.1355,-5.1356,0,-5.1397,-5.1397,-5.1398,-5.132,-5.1318,-5.1315,-5.1313,-5.1351,-5.1355,-5.1358,0,0,0,0,0,0,0,0,0,0,0,0,0,-5.1204,-5.1207,-5.1355,-5.1356,-5.1356,-5.1397,-5.1397,-5.1398,-5.1321,-5.1318,-5.1315,-5.1312,-5.135,-5.1354,-5.1358,0,0,0,0,0,0,0,0,0,0,0,0,0,-5.126,-5.1208,-5.1355,-5.1323,-5.132,-5.1397,-5.1397,-5.1398,-5.1322,-5.1318,-5.1314,-5.131,-5.1349,-5.1354,-5.1359,-5.1467,0,0,-5.1375,-5.1377,0,0,0,0,0,0,0,0,-5.1257,-5.1265,-5.1327,-5.1325,-5.1322,-5.135,-5.1358,-5.1421,-5.1323,-5.1321,-5.1313,-5.1308,-5.1354,-5.1358,-5.1374,-5.1469,-5.1471,-5.1375,-5.1378,-5.138,-5.1382,0,0,0,0,0,0,0,-5.1253,-5.1263,-5.1371,-5.1328,-5.1325,-5.1304,-5.1308,-5.137,-5.1358,-5.1321,-5.1315,-5.1322,-5.1352,-5.137,-5.1375,-5.1471,-5.1375,-5.138,-5.1383,-5.1385,-5.1655,-5.1659,0,0,0,0,0,0,-5.1254,-5.126,-5.137,-5.1373,-5.128,-5.131,-5.1314,-5.1345,-5.1357,-5.1356,-5.1325,-5.1318,-5.1363,-5.1369,-5.1376,-5.1502,-5.138,-5.1385,-5.1388,-5.1651,-5.1656,-5.1661,0,0,0,0,0,0,-5.1251,-5.1264,-5.1368,-5.1315,-5.1327,-5.1317,-5.1352,-5.1348,-5.1365,-5.136,-5.1357,-5.1345,-5.136,-5.1368,-5.1445,-5.1502,-5.1387,-5.1392,-5.1646,-5.1653,-5.1658,-5.1757,0,0,0,0,0,0,-5.1247,-5.1264,-5.1306,-5.1317,-5.133,-5.1439,-5.1355,-5.1351,-5.1375,-5.1366,-5.1379,-5.1377,-5.1358,-5.1438,-5.145,-5.1507,-5.1396,-5.1641,-5.1649,-5.1657,-5.1748,-5.1765,-5.178,0,0,0,0,0,-5.1242,-5.1331,-5.1309,-5.1322,-5.1383,-5.1442,-5.145,-5.1426,-5.138,-5.1421,-5.1418,-5.1377,-5.1494,-5.1446,-5.146,-5.1519,-5.1637,-5.1647,-5.1656,-5.1741,-5.1762,-5.178,0,0,0,0,0,0,-5.1326,-5.1332,-5.1307,-5.1403,-5.1423,-5.1429,-5.1481,-5.1449,-5.1482,-5.1472,-5.144,-5.1444,-5.1526,-5.153,-5.1477,-5.1624,-5.1558,-5.157,-5.1618,-5.1638,-5.1653,-5.165,-5.14,0,0,0,0,0,-5.1357,-5.1406,-5.1408,-5.1492,-5.1504,-5.1491,-5.1516,-5.1496,-5.1515,-5.1522,-5.1524,-5.1543,-5.1583,-5.1611,-5.1648,-5.1749,-5.1749,-5.1796,-5.1812,-5.1825,-5.1836,-5.1887,-5.1907,-5.1691,-5.1691,-5.1691,0,0,-5.1419,-5.1428,-5.1461,-5.151,-5.1523,-5.1573,-5.1499,-5.1555,-5.1591,-5.153,-5.1603,-5.1605,-5.1623,-5.1712,-5.1751,-5.1718,-5.1896,-5.1837,-5.1847,-5.1851,-5.1899,-5.1919,-5.1937,-5.1697,-5.1696,-5.1695,0,0,-5.1558,-5.1571,-5.1642,-5.1657,-5.1678,-5.1668,-5.1686,-5.1697,-5.1696,-5.1769,-5.1724,-5.1766,-5.1837,-5.1851,-5.1868,-5.2012,-5.1975,-5.2025,-5.2108,-5.2158,-5.2175,-5.219,-5.224,-5.2258,-5.2036,-5.2036,-5.2036,0,-5.1632,-5.1707,-5.1682,-5.1742,-5.1763,-5.1712,-5.1783,-5.1798,-5.183,-5.1845,-5.1808,-5.1896,-5.1904,-5.1995,-5.203,-5.2046,-5.2063,-5.2023,-5.2175,-5.219,-5.2203,-5.225,-5.2269,-5.2042,-5.2041,-5.2041,-5.204,0,-5.1797,-5.1849,-5.1904,-5.1937,-5.1965,-5.203,-5.2013,-5.2044,-5.2022,-5.2016,-5.2089,-5.2098,-5.2136,-5.2156,-5.2135,-5.2243,-5.2222,-5.2181,-5.2113,-5.223,-5.2274,-5.2292,-5.205,-5.2048,-5.2046,-5.2045,0,0,-5.199,-5.2008,-5.2028,-5.2042,-5.2061,-5.21,-5.2162,-5.22,-5.2227,-5.225,-5.23,-5.2361,-5.2323,-5.2342,-5.2321,-5.2366,-5.2477,-5.2319,-5.2319,-5.2347,-5.2595,-5.2625,-5.2647,-5.2453,-5.2457,-5.2459,-5.2593,0,-5.2126,-5.2234,-5.2213,-5.2317,-5.2364,-5.2316,-5.237,-5.2386,-5.2382,-5.242,-5.2415,-5.2459,-5.2406,-5.2417,-5.2459,-5.2455,-5.2527,-5.2445,-5.2497,-5.2499,-5.2493,-5.267,-5.2701,-5.2827,-5.261,-5.2613,-5.2615,0,-5.23,-5.2331,-5.2441,-5.2451,-5.247,-5.2519,-5.2551,-5.2589,-5.2606,-5.2599,-5.2621,-5.2592,-5.2651,-5.2584,-5.2665,-5.261,-5.263,-5.2631,-5.2635,-5.2638,-5.2563,-5.2675,-5.2867,-5.2886,-5.2642,-5.264,-5.2638,0,-5.2428,-5.2497,-5.2571,-5.2584,-5.2599,-5.2634,-5.2641,-5.2655,-5.2678,-5.2706,-5.2721,-5.2755,-5.2773,-5.28,-5.278,-5.2734,-5.2863,-5.2795,-5.2858,-5.2858,-5.2886,-5.2884,-5.3082,-5.2902,-5.2901,-5.2901,-5.2901,0,-5.2582,-5.265,-5.2628,-5.2674,-5.2748,-5.2723,-5.2797,-5.2798,-5.2811,-5.2854,-5.2814,-5.2856,-5.2828,-5.2866,-5.2851,-5.2919,-5.2928,-5.2923,-5.2918,-5.2926,-5.2926,-5.2937,-5.2927,-5.2906,-5.2905,-5.2904,-5.2903,0,-5.2736,-5.2725,-5.2802,-5.281,-5.2813,-5.2868,-5.2873,-5.2915,-5.2908,-5.2963,-5.2975,-5.2964,-5.3007,-5.299,-5.3036,-5.3025,-5.3112,-5.3096,-5.3106,-5.3102,-5.3165,-5.3158,-5.3375,-5.3402,-5.3206,-5.3208,-5.321,0,-5.2835,-5.2886,-5.29,-5.2927,-5.2937,-5.2981,-5.3005,-5.2982,-5.3008,-5.3031,-5.3069,-5.3109,-5.314,-5.3211,-5.3206,-5.324,-5.3224,-5.3298,-5.3229,-5.3235,-5.3223,-5.322,-5.3224,-5.3311,-5.3313,-5.3315,-5.3316,0,-5.301,-5.3001,-5.3039,-5.3074,-5.3104,-5.313,-5.3153,-5.3176,-5.3154,-5.3185,-5.323,-5.3253,-5.33,-5.334,-5.337,-5.3376,-5.3342,-5.3339,-5.3354,-5.3362,-5.3366,-5.3363,-5.3142,-5.3333,-5.3332,-5.333,-5.3329,-5.3329,-5.3138,-5.3181,-5.3197,-5.3239,-5.3254,-5.3276,-5.3315,-5.3313,-5.335,-5.3387,-5.337,-5.3421,-5.3435,-5.3473,-5.3484,-5.3522,-5.3493,-5.3516,-5.3522,-5.3528,-5.3535,-5.3361,-5.3527,-5.3527,-5.3526,-5.3526,-5.3526,0,-5.3309,-5.3317,-5.3357,-5.339,-5.3423,-5.339,-5.3412,-5.3441,-5.3487,-5.3504,-5.3535,-5.3585,-5.3623,-5.3622,-5.3656,-5.3687,-5.3672,-5.3697,-5.3693,-5.3695,-5.356,-5.3542,-5.3708,-5.3708,-5.3708,-5.3708,-5.3708,-5.3708,-5.3402,-5.3473,-5.3467,-5.3543,-5.355,-5.3601,-5.3616,-5.3635,-5.3649,-5.3707,-5.3739,-5.3738,-5.3747,-5.3782,-5.3814,-5.3813,-5.3826,-5.3857,-5.3849,-5.3723,-5.3705,-5.3687,-5.367,-5.386,-5.3861,-5.398,-5.3981,-5.3982]}]]